Regional Weather Roundup
Issued by NWS

Home | Current Version | Previous Version | Graphics & Text | Print | Product List | Glossary Off
Versions: 1 2 3 4 5 6 7 8 9 10 11 12 13 14 15 16 17 18 19 20 21 22 23 24 25 26 27 28 29 30 31 32 33 34 35 36 37 38 39 40 41 42 43 44 45 46 47 48 49 50

000
ASUS43 KTOP 230859
RWRKS

WEATHER ROUNDUP FOR KANSAS
NATIONAL WEATHER SERVICE GOODLAND KS
300 AM CST MON JAN 23 2017

NOTE:  "FAIR" INDICATES FEW OR NO CLOUDS BELOW 12,000 FEET WITH NO
SIGNIFICANT WEATHER AND/OR OBSTRUCTIONS TO VISIBILITY.

KSZ001>006-013>018-027>032-041>047-231000-
NORTHWEST KANSAS

CITY           SKY/WX    TMP DP  RH WIND       PRES   REMARKS
GOODLAND       CLOUDY    31  23  72 S8        29.82F
HAYS           PTCLDY    26  23  88 W5        29.89S
HILL CITY      PTCLDY    25  24  96 CALM      29.87F
RUSSELL        PTCLDY    27  24  89 SW6       29.87F
$$

KSZ061>065-074>080-084>089-231000-
SOUTHWEST KANSAS

CITY           SKY/WX    TMP DP  RH WIND       PRES   REMARKS
DODGE CITY     CLOUDY    29  24  82 SW7       29.88F
ELKHART          N/A     34  18  52 S8          N/A
GARDEN CITY    CLOUDY    30  24  78 S6        29.87F
GREAT BEND     CLEAR     26  24  92 SW6       29.91R
LIBERAL          N/A     28  21  74 SW6       29.90S
$$

KSZ066>073-081>083-090>101-231000-
SOUTHEAST KANSAS

CITY           SKY/WX    TMP DP  RH WIND       PRES   REMARKS
CHANUTE        CLEAR     30  28  92 CALM      29.93F
COFFEYVILLE    CLEAR     32  30  92 CALM      29.95F
HUTCHINSON     CLEAR     26  24  92 CALM      29.91F
MEDICINE LODGE   N/A     27  24  89 CALM      29.93R
NEWTON         CLEAR     29  29 100 W3        29.92S
PARSONS        CLEAR     29  28  96 CALM      29.94F
WICHITA INTL   CLEAR     30  27  88 CALM      29.93S
WICHITA JABRA  CLEAR     29  28  96 CALM      29.92S
WICHITA MCCONL CLEAR     32  28  86 CALM      29.92F
WINFIELD       CLEAR     29  27  92 CALM      29.95S
$$

KSZ007>012-019>026-033>040-048>060-102>105-231000-
NORTHEAST KANSAS

CITY           SKY/WX    TMP DP  RH WIND       PRES   REMARKS
CONCORDIA      CLEAR     28  26  92 CALM      29.89F
EMPORIA        CLEAR     27  27 100 W6        29.92F
LAWRENCE       FOG       26  26 100 CALM      29.92S VSB 1
MANHATTAN      CLEAR     24  22  91 CALM      29.94R
OLATHE IND     CLEAR     30  29  96 W7        29.91R
OLATHE EXE     CLEAR     31  31 100 NW5       29.90R
SALINA           N/A    N/A N/A N/A MISG        N/A
TOPEKA BILLARD CLEAR     30  27  88 W5        29.93R
TOPEKA FORBES  CLEAR     28  25  88 W5        29.92S
$$




USA.gov is the U.S. government's official web portal to all federal, state and local government web resources and services.